Simultaneous Nadir Overpasses (SNOs) Predictions

Prediction of SNOs between GOES-15 and FY3D Satellite Orbit:

Table of predicted SNOs for the next 14.0 days since TLE Epoch: 2/24/2024
Index Date Time (GOES-15) GOES-15 Lat,Lon FY3D Lat,Lon Distance(km) Time Diff (sec)
1 02/26/2024 10:20:08 -0.04, 61.38 -0.11, 61.06 36.50 80
2 02/27/2024 09:58:58 -0.04, 61.37 0.89, 65.55 475.35 80
3 02/28/2024 22:23:51 0.04, 61.27 0.26, 60.20 121.66 80
4 02/29/2024 22:02:41 0.04, 61.27 -0.75, 64.68 389.82 80
5 03/02/2024 10:27:39 -0.04, 61.36 -0.49, 59.33 231.27 80
6 03/03/2024 10:06:30 -0.04, 61.36 0.52, 63.81 279.73 80
7 03/04/2024 22:28:41 0.05, 61.27 0.68, 58.48 318.67 80
8 03/05/2024 22:10:12 0.05, 61.28 -0.34, 62.96 191.97 80
9 03/07/2024 10:35:09 -0.06, 61.38 -0.94, 57.62 430.16 80
10 03/08/2024 10:14:00 -0.06, 61.39 0.08, 62.10 80.29 80
